Simultaneous Nadir Overpasses (SNOs) Predictions

Prediction of SNOs between GOES-17 and METOP-C Satellite Orbit:

Table of predicted SNOs for the next 14.0 days since TLE Epoch: 10/17/2025
Index Date Time (GOES-17) GOES-17 Lat,Lon METOP-C Lat,Lon Distance(km) Time Diff (sec)
1 10/18/2025 03:26:53 -0.29, -89.47 -0.22, -89.16 34.85 80
2 10/19/2025 15:48:25 0.30, -89.54 1.25, -93.72 476.89 80
3 10/20/2025 15:25:07 0.29, -89.55 0.12, -88.73 92.52 80
4 10/22/2025 03:46:48 -0.30, -89.49 -1.16, -93.33 437.79 80
5 10/23/2025 03:23:30 -0.30, -89.49 -0.02, -88.34 131.65 80
6 10/24/2025 15:42:22 0.31, -89.57 1.03, -92.91 379.84 80
7 10/25/2025 15:21:43 0.31, -89.58 -0.05, -87.91 189.86 80
8 10/27/2025 03:43:24 -0.32, -89.52 -0.98, -92.51 340.21 80
9 10/28/2025 03:20:04 -0.32, -89.53 0.11, -87.51 229.51 80
10 10/29/2025 15:38:57 0.33, -89.60 0.89, -92.07 281.69 80
11 10/30/2025 15:20:58 0.33, -89.61 -0.26, -87.09 288.47 80
